Home   Weather   Tau   Past weeks

Flag for Norway Past Weather in Tau, Norway — Yesterday and Last 2 Weeks

Now
54 °F

Scattered showers. Broken clouds.


Feels Like: 49 °F
Forecast: 45 / 51 °F
Wind: 18 mph from West

Location: Stavanger / Sola

Current Time: Sep 30, 2016 at 6:55:18 PM

Latest Report: Sep 30, 2016 at 6:20 PM


Visibility: 6 mi

Pressure: 29.53 "Hg

Humidity: 72%

Dew Point: 45 °F

Location of TauLocation

Past Weather in Tau — Graph

°F

Tau Temperature Yesterday

Maximum temperature yesterday: 63 °F (at 2:50 AM)
Minimum temperature yesterday: 52 °F (at 9:50 PM)
Average temperature yesterday: 57 °F

High & Low Weather Summary for the Past Weeks

 TemperatureHumidityPressure
High79 °F (Sep 16, 12:50 PM)100% (Sep 20, 2:50 AM)30.24 "Hg (Sep 20, 2:50 AM)
Low52 °F (Sep 23, 9:50 PM)44% (Sep 25, 4:20 PM)29.18 "Hg (Sep 29, 3:20 PM)
Average61 °F76%29.97 "Hg
* Reported Sep 15 5:20 PM — Sep 30 5:50 PM, Tau, Weather by CustomWeather, © 2016

Note: Actual official high and low records may vary slightly from our data, if they occured in-between our weather recording intervals... More about our weather records

Advertising

Tau Weather History for the Previous 24 Hours

Scroll right to see more
 ConditionsComfort  
Time TempWeatherWind HumidityBarometerVisibility
5:50 PM
Fri, Sep 30
52 °FRain showers. Broken clouds.21 mph77%29.53 "Hg5 mi
5:20 PM54 °FRain showers. Broken clouds.21 mph67%29.53 "Hg4 mi
4:50 PM54 °FRain showers. Partly sunny.16 mph77%29.53 "HgN/A
4:20 PM54 °FRain showers. Partly sunny.17 mph67%29.53 "HgN/A
3:50 PM54 °FRain showers. Broken clouds.25 mph72%29.53 "HgN/A
3:20 PM55 °FScattered showers. Broken clouds.24 mph72%29.53 "HgN/A
2:50 PM55 °FScattered showers. Broken clouds.23 mph63%29.53 "HgN/A
2:20 PM57 °FPartly sunny.24 mph63%29.53 "HgN/A
1:50 PM55 °FBroken clouds.23 mph63%29.53 "HgN/A
1:20 PM57 °FBroken clouds.22 mph51%29.53 "HgN/A
12:50 PM55 °FScattered clouds.20 mph59%29.50 "HgN/A
12:20 PM55 °FPartly sunny.24 mph59%29.50 "HgN/A
11:50 AM55 °FPartly sunny.23 mph59%29.50 "HgN/A
11:20 AM55 °FScattered clouds.21 mph59%29.50 "HgN/A
10:50 AM55 °FBroken clouds.20 mph59%29.50 "HgN/A
10:20 AM55 °FBroken clouds.18 mph59%29.50 "HgN/A
9:50 AM54 °FScattered showers. Broken clouds.20 mph63%29.50 "HgN/A
9:20 AM54 °FScattered showers. Broken clouds.20 mph63%29.50 "HgN/A
8:50 AM54 °FScattered showers. Broken clouds.17 mph63%29.47 "HgN/A
8:20 AM54 °FBroken clouds.17 mph63%29.47 "HgN/A
7:50 AM54 °FBroken clouds.16 mph63%29.47 "HgN/A
7:20 AM52 °FPartly cloudy.15 mph72%29.47 "HgN/A
6:50 AM54 °FPassing clouds.18 mph58%29.47 "HgN/A
6:20 AM54 °FPartly cloudy.18 mph67%29.47 "HgN/A
5:50 AM54 °FPassing clouds.17 mph63%29.47 "HgN/A
4:50 AM52 °FPartly cloudy.18 mph72%29.45 "HgN/A
3:50 AM52 °FSprinkles. Passing clouds.16 mph72%29.45 "HgN/A
2:50 AM52 °FRain showers. Partly cloudy.20 mph72%29.45 "HgN/A
1:50 AM52 °FPassing clouds.21 mph72%29.45 "HgN/A
12:50 AM54 °FScattered showers. Passing clouds.23 mph63%29.42 "HgN/A
12:20 AM52 °FScattered showers. Partly cloudy.21 mph72%29.42 "HgN/A
11:50 PM
Thu, Sep 29
52 °FScattered showers. Partly cloudy.17 mph77%29.42 "HgN/A
11:20 PM52 °FScattered showers. Partly cloudy.15 mph72%29.39 "HgN/A
10:50 PM54 °FScattered showers. Partly cloudy.21 mph72%29.39 "HgN/A
10:20 PM54 °FScattered showers. Partly cloudy.22 mph72%29.39 "HgN/A
9:50 PM52 °FRain showers. Partly cloudy.23 mph72%29.36 "Hg5 mi
9:20 PM54 °FRain showers. Partly cloudy.25 mph72%29.36 "Hg5 mi
8:50 PM54 °FScattered showers. Partly cloudy.26 mph77%29.36 "Hg6 mi
8:20 PM54 °FScattered showers. Partly cloudy.20 mph77%29.33 "Hg6 mi
7:50 PM54 °FRain showers. Partly cloudy.25 mph77%29.30 "Hg5 mi
7:20 PM54 °FRain showers. Partly cloudy.25 mph77%29.30 "Hg4 mi
6:50 PM54 °FRain showers. Broken clouds.26 mph82%29.27 "Hg6 mi
6:20 PM55 °FScattered showers. Broken clouds.30 mph77%29.27 "Hg6 mi
Weather by CustomWeather, © 2016

See weather overviewHow to use our weather pages